Regional Weather Roundup
Issued by NWS Cleveland, OH

Home | Current Version | Previous Version | Graphics & Text | Print | Product List | Glossary On
Versions: 1 2 3 4 5 6 7 8 9 10 11 12 13 14 15 16 17 18 19 20 21 22 23 24 25 26 27 28 29 30 31 32 33 34 35 36 37 38 39 40 41 42 43 44 45 46 47 48 49 50
000
ASUS41 KCLE 280210
RWRCLE
OHIO REGIONAL WEATHER ROUNDUP
NATIONAL WEATHER SERVICE CLEVELAND, OH
1000 PM EDT FRI MAY 27 2016

NOTE: "FAIR" INDICATES FEW OR NO CLOUDS BELOW 12,000 FEET WITH NO
SIGNIFICANT WEATHER AND/OR OBSTRUCTIONS TO VISIBILITY.

OHZ001>008-015>018-024>027-034-035-043-044-280300-
   NORTHWEST OHIO

CITY           SKY/WX    TMP DP  RH WIND       PRES   REMARKS
DEFIANCE       CLEAR     81  59  47 S7        29.95R
FINDLAY        PTCLDY    77  60  55 S8        29.96R
TOLEDO EXPRESS CLOUDY    74  64  71 E5        29.95R
TOLEDO EXEC    CLOUDY    77  64  64 E5        29.96R
LIMA           CLOUDY    79  60  52 S6        29.98R
$$

OHZ009>014-019>023-028>033-038-089-280300-
   NORTHEAST OHIO

CITY           SKY/WX    TMP DP  RH WIND       PRES   REMARKS
CLE-HOPKINS    MOCLDY    79  62  56 SE5       30.02R
CLE-LAKEFRONT  MOCLDY    77  64  64 SE3       29.98S
CUY CO. ARPT   MOCLDY    75  68  78 CALM      30.02R
LORAIN-ELYRIA  CLOUDY    76  61  59 S6        30.00R
ASHTABULA      CLEAR     69  64  84 CALM      30.03R
AKRON-CANTON   PTCLDY    76  62  62 S3        30.04R
WOOSTER        PTCLDY    73  63  70 SE3       30.03R
MANSFIELD      CLOUDY    75  64  68 SE7       30.03R
YOUNGSTOWN     MOCLDY    69  63  81 S5        30.04R
$$

OHZ042-051>053-060>062-070>072-077>081-280300-
  SOUTHWEST OHIO

CITY           SKY/WX    TMP DP  RH WIND       PRES   REMARKS
CINC-COVINGTON MOCLDY    75  65  70 S5        30.00R
CINC-LUNKEN    PTCLDY    71  69  93 CALM      29.99R
HAMILTON       PTCLDY    73  66  78 CALM      29.99R
DAYTON         MOCLDY    77  61  57 S7        30.01R
WRIGHT-PAT AFB PTCLDY    78  63  60 S7        29.99R
DAYTON GENERAL PTCLDY    76  61  59 CALM      30.00R
WILMINGTON     PTCLDY    74  63  68 SE3       30.02R
$$

OHZ036-037-039>041-045>050-054>059-063>069-073>076-082>088-280300-
  CENTRAL AND SOUTHEAST OHIO

CITY           SKY/WX    TMP DP  RH WIND       PRES   REMARKS
COLUMBUS       MOCLDY    80  62  54 S5        30.00R
OSU AIRPORT    PTCLDY    80  62  54 S7        30.00
BOLTON FIELD   PTCLDY    75  64  69 S6        30.01S
RICKENBACK AFB PTCLDY    75  64  66 S6        30.00R
NEWARK         CLOUDY    79  65  62 CALM      30.01R
MARION         PTCLDY    77  62  59 S6        30.01R
LANCASTER      MOCLDY    76  64  66 CALM      30.02R
ZANESVILLE     CLOUDY    78  67  68 SE3       30.03R
NEW PHILLY     CLOUDY    75  65  70 SE3       30.04R
$$




USA.gov is the U.S. government's official web portal to all federal, state and local government web resources and services.